#timestamp,LO_Frequency,Hit,StdDev 
1529701215.4,286047004.8,N
1529701235.2,286047007.0,N
1529701255.1,286047007.2,N
1529701256.0,286047007.2,N
1529701275.8,286047006.7,N
1529701295.7,286047004.7,N
1529701315.5,286047005.0,N
1529701335.3,286047004.5,N
1529701355.2,286047008.7,Y
1529701375.0,286047002.7,P
1529701375.9,286047011.9,P
1529701395.8,286047001.6,N
1529701415.6,286047002.7,N
1529701435.4,286047001.3,N
1529701455.3,286047004.1,N
1529701475.1,286047003.1,N
1529701495.8,286047002.3,N
1529701515.7,286047002.9,N
1529701535.5,286047004.0,N
1529701555.4,286047001.6,N
1529701575.2,286047001.5,N
1529701595.0,286047003.5,N
1529701595.9,286047003.5,N
1529701615.8,286047002.9,N
1529701635.6,286047003.9,N
1529701655.5,286047002.1,N
1529701675.3,286047002.5,N
1529701695.1,286047001.2,N
1529701715.9,286047000.2,N
1529701735.7,286047001.0,N
1529701755.5,286046999.0,N
1529701775.4,286046999.0,N
1529701795.2,286046999.2,N
1529701815.1,286046998.3,N
1529701816.0,286046998.3,N
1529701835.8,286047002.2,N
1529701855.6,286047002.8,N
1529701875.5,286047001.6,N
1529701895.3,286046999.7,N
1529701915.1,286047001.5,N
1529701935.9,286047002.2,N
1529701955.7,286047004.3,N
1529701975.6,286047001.7,N
1529701995.4,286047003.1,N
1529702015.2,286047001.7,N
1529702035.1,286047002.3,N
1529702036.0,286047002.3,N
1529702055.8,286047000.0,N
1529702075.6,286046999.9,N
1529702095.5,286046999.9,N
1529702115.3,286047004.2,N
1529702135.2,286047004.0,N
1529702155.0,286047002.2,N
1529702155.9,286047002.2,N
1529702175.7,286047000.9,N
1529702195.6,286046998.3,N
1529702215.4,286047000.1,N
1529702235.3,286047002.3,N
1529702255.1,286047002.8,N
1529702256.0,286047002.8,N
1529702275.8,286047002.1,N
1529702295.7,286047001.8,N
1529702315.5,286047004.1,N
1529702335.3,286047004.3,N
1529702355.2,286047004.0,N
1529702375.0,286047002.4,N
1529702375.9,286047002.4,N
1529702395.8,286047003.6,N
1529702415.6,286047003.9,N
1529702435.4,286047005.3,Y
1529702455.3,286047003.2,P
1529702475.1,286047004.1,P
1529702495.9,286047004.3,P
1529702515.7,286047003.6,Y
1529702535.5,286046997.4,P
1529702555.4,286046997.9,N
1529702575.2,286047011.9,P
1529702595.0,286046998.2,N
1529702595.9,286046998.2,N
1529702615.8,286046999.0,N
1529702635.6,286046999.5,N
1529702655.5,286046998.9,N
1529702675.3,286046997.2,N
1529702695.1,286046994.9,N
1529702715.9,286046998.3,N
1529702735.7,286046998.9,N
1529702755.5,286046997.5,N
1529702775.4,286046996.2,N
1529702795.2,286046997.9,N
1529702815.1,286046995.1,N
1529702816.0,286046995.1,N
1529702835.8,286046996.0,N
1529702855.4,286046997.1,N
1529702875.3,286046998.8,N
1529702895.1,286047001.0,N
1529702915.8,286047000.0,N
1529702935.7,286047004.4,N
1529702955.5,286047002.8,N
1529702975.4,286047001.1,N
1529702995.2,286047001.1,N
1529703015.0,286047000.1,N
1529703015.9,286047000.1,N
1529703035.8,286047000.0,N
1529703055.6,286046998.4,N
1529703075.5,286046999.1,N
1529703095.3,286046999.5,N
1529703115.1,286046998.3,N
1529703135.9,286046999.4,N
1529703155.7,286046995.0,N
1529703175.5,286046995.0,N
1529703195.4,286046997.9,N
1529703215.2,286046995.4,N
1529703235.1,286046996.6,N
1529703236.0,286046996.6,N
1529703255.8,286046999.3,N
1529703275.6,286046999.6,N
1529703295.5,286046999.1,N
1529703315.3,286046997.9,N
1529703335.2,286046995.0,N
1529703355.9,286046997.6,N
1529703375.7,286046997.2,N
1529703395.6,286046998.6,N
1529703415.4,286047001.2,N
1529703435.2,286046998.1,N
1529703455.1,286046998.2,N
1529703456.0,286046998.2,N
1529703475.8,286046996.6,N
1529703495.7,286046996.6,N
1529703515.5,286046998.2,N
1529703535.3,286046998.9,N
1529703555.2,286046998.6,N
1529703575.0,286046998.3,N
1529703575.9,286046998.3,N
1529703595.8,286046999.1,N
1529703615.6,286046995.3,Y
1529703635.4,286046999.7,P
1529703655.3,286046999.7,N
1529703675.1,286046999.7,N
1529703695.9,286047000.3,N
1529703715.7,286046999.2,N
1529703735.5,286046998.1,N
1529703755.4,286046999.6,N
1529703775.2,286046998.1,N
1529703795.1,286047002.8,Y
1529703796.0,286047002.8,P
1529703815.8,286047002.4,N
1529703835.5,286047002.4,N
1529703855.3,286047001.1,N
1529703875.2,286046998.9,N
1529703895.0,286047001.0,N
1529703895.9,286047001.0,N
1529703915.8,286047000.4,N
1529703935.6,286047002.8,N
1529703955.4,286047002.1,N
1529703975.3,286047004.4,Y
1529703995.0,286046999.8,P
1529703995.9,286046999.8,N
1529704015.8,286047001.1,N
1529704035.6,286047000.2,N
1529704055.4,286047000.5,N
1529704075.3,286047000.2,N
1529704095.1,286047000.4,N
1529704115.8,286047001.4,N
1529704135.7,286047001.9,Y
1529704155.5,286047001.9,P
1529704175.4,286047004.1,P
1529704195.2,286047002.4,N
1529704215.0,286047001.3,N
1529704215.9,286047001.3,N
1529704235.8,286047000.3,N
1529704255.6,286046999.7,N
1529704275.5,286046999.8,N
1529704295.3,286047002.4,N
1529704315.1,286047000.3,N
1529704335.9,286047000.4,N
1529704355.1,286047001.2,N
1529704375.8,286046998.2,N
1529704395.7,286047002.8,N
1529704415.5,286047002.2,N
1529704435.4,286047000.4,N
1529704455.2,286047000.4,N
1529704475.0,286047001.0,N
1529704475.9,286047001.0,N
1529704495.8,286046998.5,N
1529704515.6,286047000.4,N
1529704535.5,286047002.8,N
1529704555.3,286046999.7,N
1529704575.1,286047000.5,N
1529704595.9,286047000.9,N
1529704615.7,286047001.2,N
1529704635.5,286046998.5,N
1529704655.4,286046998.2,N
1529704675.2,286046998.6,N
1529704695.1,286046998.4,N
1529704696.0,286046998.4,N
1529704715.8,286046999.9,N
1529704735.6,286047000.0,N
1529704755.5,286047002.7,N
1529704775.3,286047000.6,N
1529704795.1,286047000.5,N
